Simultaneous Nadir Overpasses (SNOs) Predictions

Prediction of SNOs between LANDSAT-8 and NOAA-19 Satellite Orbit:

Table of predicted SNOs for the next 14.0 days since TLE Epoch: 10/6/2018
Index Date (LANDSAT-8) Time (LANDSAT-8) Lat,Lon (LANDSAT-8) SZA (LANDSAT-8 ) Date (NOAA-19) Time (NOAA-19) Lat,Lon (NOAA-19) SZA (NOAA-19 ) Distance(km) Time Diff (sec)
1 10/06/2018 21:57:55 -78.01, 46.12 96.07 10/06/2018 21:58:05 -78.00, 46.23 96.07 2.54 10
2 10/09/2018 03:31:38 78.02, 142.75 84.81 10/09/2018 03:31:32 78.03, 142.76 84.82 1.21 6
3 10/11/2018 09:05:23 -78.06,-120.52 94.30 10/11/2018 09:05:09 -78.05,-120.65 94.32 3.12 14
4 10/11/2018 09:54:50 78.00, 46.86 85.65 10/11/2018 09:56:03 77.99, 46.97 85.67 2.92 73
5 10/13/2018 14:39:07 78.06, -23.93 86.56 10/13/2018 14:38:36 78.06, -24.00 86.55 1.61 31
6 10/13/2018 15:28:35 -78.04, 143.59 93.46 10/13/2018 15:29:40 -78.00, 143.57 93.48 4.13 65
7 10/15/2018 20:12:53 -78.06, 72.59 92.62 10/15/2018 20:12:13 -78.07, 72.61 92.61 1.94 40
8 10/15/2018 21:02:19 78.04,-119.84 87.38 10/15/2018 21:03:07 78.02,-119.80 87.37 2.52 48
9 10/18/2018 01:46:36 78.10, 169.35 88.26 10/18/2018 01:45:40 78.09, 169.21 88.23 3.24 56




NCC Satellite Simultaneous Nadir Overpasses (SNOs) Prediction Service
